TimeCDT,TemperatureF,Dew PointF,Humidity,Sea Level PressureIn,VisibilityMPH,Wind Direction,Wind SpeedMPH,Gust SpeedMPH,PrecipitationIn,Events,Conditions,WindDirDegrees,DateUTC
12:54 AM,52.0,46.0,80,29.94,10.0,Calm,Calm,-,N/A,,Clear,0,2011-10-02 05:54:00
1:54 AM,51.1,46.0,83,29.95,10.0,SSE,3.5,-,N/A,,Clear,150,2011-10-02 06:54:00
2:54 AM,48.9,44.1,83,29.94,10.0,North,3.5,-,N/A,,Clear,10,2011-10-02 07:54:00
3:54 AM,50.0,45.0,83,29.93,10.0,South,5.8,-,N/A,,Clear,180,2011-10-02 08:54:00
4:54 AM,48.0,44.1,86,29.92,10.0,NNE,6.9,-,N/A,,Clear,20,2011-10-02 09:54:00
5:54 AM,46.0,44.1,93,29.93,10.0,NE,5.8,-,N/A,,Clear,50,2011-10-02 10:54:00
6:54 AM,48.9,45.0,86,29.93,10.0,SSW,3.5,-,N/A,,Clear,200,2011-10-02 11:54:00
7:54 AM,46.0,43.0,89,29.92,10.0,East,6.9,-,N/A,,Clear,90,2011-10-02 12:54:00
8:54 AM,50.0,46.0,86,29.93,10.0,Calm,Calm,-,N/A,,Clear,0,2011-10-02 13:54:00
9:54 AM,55.0,46.9,74,29.91,10.0,ESE,9.2,-,N/A,,Clear,110,2011-10-02 14:54:00
10:54 AM,63.0,48.0,58,29.89,10.0,ESE,6.9,-,N/A,,Clear,120,2011-10-02 15:54:00
11:54 AM,71.1,48.9,45,29.89,10.0,ESE,10.4,-,N/A,,Clear,120,2011-10-02 16:54:00
12:54 PM,79.0,51.1,38,29.88,10.0,ESE,9.2,-,N/A,,Clear,120,2011-10-02 17:54:00
1:54 PM,87.1,46.9,25,29.84,10.0,SSE,10.4,-,N/A,,Clear,150,2011-10-02 18:54:00
2:54 PM,89.1,44.1,21,29.82,10.0,South,12.7,-,N/A,,Clear,170,2011-10-02 19:54:00
3:54 PM,89.1,44.1,21,29.82,10.0,South,13.8,20.7,N/A,,Clear,180,2011-10-02 20:54:00
4:54 PM,87.8,48.2,25,29.83,10.0,SSE,9.2,-,N/A,,Clear,150,2011-10-02 21:54:00
5:54 PM,82.9,48.9,31,29.83,10.0,SE,8.1,-,N/A,,Clear,130,2011-10-02 22:54:00
6:54 PM,75.0,50.0,41,29.84,10.0,Calm,Calm,-,N/A,,Clear,0,2011-10-02 23:54:00
7:54 PM,75.0,48.9,40,29.85,10.0,ESE,4.6,-,N/A,,Clear,110,2011-10-03 00:54:00
8:54 PM,75.9,46.9,36,29.87,10.0,WSW,3.5,-,N/A,,Clear,240,2011-10-03 01:54:00
9:54 PM,73.0,46.9,39,29.88,10.0,Variable,3.5,-,N/A,,Clear,0,2011-10-03 02:54:00
10:54 PM,70.0,46.9,44,29.89,10.0,Calm,Calm,-,N/A,,Clear,0,2011-10-03 03:54:00
11:54 PM,66.0,48.9,54,29.89,10.0,SSW,5.8,-,N/A,,Clear,210,2011-10-03 04:54:00